Location: Norwich
(42.5310°N, 75.5240°W)
Time: 13:05:58
(UTC-04:00)

N. Korean satellite - Visible Passes

Search period start: 20 October 2019 00:00
Search period end: 30 October 2019 00:00
Orbit: 455 x 508 km, 97.2° (Epoch: 20 October)

Date Brightness Start Highest point End Pass type
(mag) Time Alt. Az. Time Alt. Az. Time Alt. Az.
20 Oct 10.3 19:18:09 10° WSW 19:19:23 12° W 19:20:38 10° WNW visible
21 Oct 7.8 06:41:07 10° NNE 06:44:39 48° E 06:48:12 10° S visible
21 Oct 9.3 18:51:05 10° SSW 18:53:54 23° W 18:56:44 10° NW visible
22 Oct 9.4 06:16:17 10° NE 06:19:16 23° E 06:22:15 10° SSE visible
23 Oct 10.3 05:52:20 10° ENE 05:53:46 12° E 05:55:13 10° ESE visible
24 Oct 10.0 19:09:29 10° SW 19:11:27 14° W 19:13:26 10° WNW visible
25 Oct 8.3 06:33:20 10° NNE 06:36:47 38° E 06:40:15 10° SSE visible
25 Oct 8.8 18:42:55 10° SSW 18:45:57 29° W 18:49:04 10° NW visible
26 Oct 9.7 06:08:39 10° NE 06:11:22 19° E 06:14:05 10° SE visible
28 Oct 7.1 06:50:35 10° NNE 06:54:15 67° E 06:57:56 10° S visible
28 Oct 9.8 19:01:01 10° SW 19:03:28 18° W 19:05:58 10° NW visible
29 Oct 8.8 06:25:33 10° NNE 06:28:53 31° E 06:32:12 10° SSE visible
29 Oct 8.3 18:34:47 10° SSW 18:38:00 37° W 18:41:18 10° NNW visible
